EW8484 Weather Reports


Display with metric or nautical units.
time (UTC)temp
F
wind
direction
speed
MPH
gust
MPH
rain 1hr
in
rain 24hr
in
rain mn
in
humidity
%
barometer
mb
20260505230527 72 183 3.0 10.0 0.00 0.00 0.00 39 1008.9
20260505230047 72 214 3.0 9.0 0.00 0.00 0.00 40 1008.7
20260505225527 72 209 2.0 5.0 0.00 0.00 0.00 39 1008.9
20260505225047 72 222 3.0 11.0 0.00 0.00 0.00 39 1008.8
20260505224527 73 207 2.0 5.0 0.00 0.00 0.00 39 1008.6
20260505224027 73 208 2.0 5.0 0.00 0.00 0.00 38 1008.6
20260505223628 73 204 3.0 6.0 0.00 0.00 0.00 38 1008.6
20260505223027 73 186 3.0 9.0 0.00 0.00 0.00 37 1008.5
20260505222527 74 186 4.0 9.0 0.00 0.00 0.00 37 1008.4
20260505222027 74 181 3.0 5.0 0.00 0.00 0.00 37 1008.5
20260505221527 75 189 2.0 7.0 0.00 0.00 0.00 37 1008.4
20260505221027 75 204 3.0 7.0 0.00 0.00 0.00 37 1008.2
20260505220527 75 200 3.0 7.0 0.00 0.00 0.00 37 1008.3
20260505220027 75 202 2.0 10.0 0.00 0.00 0.00 36 1008.2
20260505215527 75 182 3.0 9.0 0.00 0.00 0.00 36 1008.2
20260505215027 76 184 2.0 5.0 0.00 0.00 0.00 37 1008.1
20260505214527 76 193 3.0 7.0 0.00 0.00 0.00 36 1008.1
20260505214027 76 188 3.0 9.0 0.00 0.00 0.00 35 1008.1
20260505213527 76 184 4.0 10.0 0.00 0.00 0.00 35 1008.2
20260505213027 76 189 3.0 8.0 0.00 0.00 0.00 34 1008.3
20260505212527 76 209 3.0 10.0 0.00 0.00 0.00 35 1008.4
20260505212027 77 180 4.0 10.0 0.00 0.00 0.00 34 1008.3
20260505211527 77 201 4.0 12.0 0.00 0.00 0.00 34 1008.2
20260505211017 77 203 3.0 7.0 0.00 0.00 0.00 34 1008.1
20260505210527 77 179 3.0 8.0 0.00 0.00 0.00 34 1008.2
20260505210027 78 213 3.0 8.0 0.00 0.00 0.00 34 1008.0
20260505205527 78 193 3.0 10.0 0.00 0.00 0.00 32 1008.0
20260505205027 78 191 3.0 7.0 0.00 0.00 0.00 32 1007.9
20260505204527 78 200 3.0 6.0 0.00 0.00 0.00 33 1007.9
20260505204026 78 185 4.0 9.0 0.00 0.00 0.00 32 1007.9
20260505203527 79 213 3.0 7.0 0.00 0.00 0.00 30 1007.9
20260505203027 79 190 4.0 8.0 0.00 0.00 0.00 31 1007.8
20260505202527 80 194 4.0 8.0 0.00 0.00 0.00 31 1007.9
20260505202027 80 185 4.0 11.0 0.00 0.00 0.00 31 1007.9
20260505201527 80 179 3.0 9.0 0.00 0.00 0.00 30 1008.0
20260505201027 80 187 3.0 7.0 0.00 0.00 0.00 30 1007.9
20260505200527 80 200 4.0 15.0 0.00 0.00 0.00 29 1008.1
20260505200027 81 185 5.0 15.0 0.00 0.00 0.00 29 1008.0
20260505195526 81 213 3.0 7.0 0.00 0.00 0.00 29 1007.9
20260505195027 81 193 4.0 12.0 0.00 0.00 0.00 28 1007.9
20260505194527 81 208 5.0 13.0 0.00 0.00 0.00 28 1007.9
20260505194027 81 196 4.0 9.0 0.00 0.00 0.00 28 1008.0
20260505193527 81 183 3.0 7.0 0.00 0.00 0.00 34 1007.9
20260505193047 81 216 4.0 9.0 0.00 0.00 0.00 29 1007.9
20260505192526 81 197 3.0 8.0 0.00 0.00 0.00 30 1007.9
20260505192027 81 179 3.0 7.0 0.00 0.00 0.00 29 1008.1
20260505191527 82 187 4.0 7.0 0.00 0.00 0.00 27 1008.4
20260505191027 82 185 4.0 8.0 0.00 0.00 0.00 28 1008.3
20260505190527 82 217 3.0 9.0 0.00 0.00 0.00 29 1008.3
20260505190047 81 199 5.0 13.0 0.00 0.00 0.00 28 1008.3
20260505185527 81 195 4.0 14.0 0.00 0.00 0.00 29 1008.4
20260505185027 82 188 3.0 12.0 0.00 0.00 0.00 29 1008.4
20260505184547 82 184 4.0 9.0 0.00 0.00 0.00 30 1008.6
20260505184027 82 187 2.0 5.0 0.00 0.00 0.00 34 1008.7
20260505183526 82 180 3.0 6.0 0.00 0.00 0.00 30 1008.6
20260505183027 81 181 3.0 6.0 0.00 0.00 0.00 31 1008.7
20260505182527 81 189 4.0 9.0 0.00 0.00 0.00 31 1008.8
20260505182027 81 186 3.0 6.0 0.00 0.00 0.00 32 1009.0
20260505181526 81 184 4.0 10.0 0.00 0.00 0.00 31 1008.8
20260505181047 81 175 3.0 9.0 0.00 0.00 0.00 31 1008.9
20260505180527 81 193 4.0 9.0 0.00 0.00 0.00 30 1009.0
20260505180027 81 197 4.0 10.0 0.00 0.00 0.00 29 1009.1
20260505175526 82 194 3.0 9.0 0.00 0.00 0.00 29 1009.1
20260505175026 81 253 3.0 6.0 0.00 0.00 0.00 30 1009.1
20260505174547 81 194 4.0 9.0 0.00 0.00 0.00 32 1009.0
20260505174027 81 173 4.0 8.0 0.00 0.00 0.00 32 1009.0
20260505173527 81 199 3.0 6.0 0.00 0.00 0.00 29 1009.1
20260505173027 81 178 4.0 8.0 0.00 0.00 0.00 31 1009.1
20260505172526 81 194 3.0 6.0 0.00 0.00 0.00 31 1009.2
20260505172026 80 175 3.0 8.0 0.00 0.00 0.00 31 1009.2
20260505171527 80 182 3.0 8.0 0.00 0.00 0.00 34 1009.3
20260505171047 79 187 3.0 8.0 0.00 0.00 0.00 33 1009.2
20260505170526 79 175 5.0 9.0 0.00 0.00 0.00 34 1009.4
20260505170047 79 176 3.0 7.0 0.00 0.00 0.00 34 1009.6
20260505165526 79 167 4.0 10.0 0.00 0.00 0.00 37 1009.9
20260505165026 78 182 3.0 7.0 0.00 0.00 0.00 38 1009.7
20260505164607 78 170 4.0 9.0 0.00 0.00 0.00 37 1009.8
20260505164026 78 178 3.0 5.0 0.00 0.00 0.00 40 1010.0
20260505163526 78 182 3.0 8.0 0.00 0.00 0.00 38 1010.0
20260505163027 77 177 3.0 8.0 0.00 0.00 0.00 39 1010.1
20260505162526 77 194 2.0 7.0 0.00 0.00 0.00 37 1010.3
20260505162028 77 199 4.0 12.0 0.00 0.00 0.00 38 1010.3
20260505161527 77 218 2.0 8.0 0.00 0.00 0.00 38 1010.5
20260505161026 77 233 3.0 10.0 0.00 0.00 0.00 37 1010.5
20260505160526 76 189 2.0 7.0 0.00 0.00 0.00 38 1010.5
20260505153026 73 190 3.0 6.0 0.00 0.00 0.00 42 1011.2
20260505152526 73 227 2.0 4.0 0.00 0.00 0.00 43 1011.2
20260505152047 73 168 3.0 9.0 0.00 0.00 0.00 42 1011.3
20260505151526 73 173 2.0 6.0 0.00 0.00 0.00 43 1011.2
20260505151026 72 156 3.0 8.0 0.00 0.00 0.00 44 1011.5
20260505150526 72 163 2.0 7.0 0.00 0.00 0.00 46 1011.3
20260505140526 66 175 1.0 3.0 0.00 0.00 0.00 46 1011.5
20260505125026 63 170 3.0 6.0 0.00 0.00 0.00 38 1011.8
20260505124526 62 175 3.0 6.0 0.00 0.00 0.00 36 1011.9
20260505124027 62 196 2.0 4.0 0.00 0.00 0.00 37 1011.8
20260505123526 61 167 2.0 10.0 0.00 0.00 0.00 39 1011.6
20260505123036 61 167 2.0 5.0 0.00 0.00 0.00 37 1011.8
20260505122526 60 177 2.0 4.0 0.00 0.00 0.00 36 1011.7
20260505122026 59 181 1.0 3.0 0.00 0.00 0.00 37 1011.7
20260505121526 58 173 2.0 5.0 0.00 0.00 0.00 38 1011.8
20260505121026 57 215 1.0 4.0 0.00 0.00 0.00 39 1011.9
20260505120526 56 191 1.0 3.0 0.00 0.00 0.00 40 1011.9
20260505120026 56 188 1.0 3.0 0.00 0.00 0.00 40 1011.9
20260505115526 56 173 1.0 2.0 0.00 0.00 0.00 40 1012.1
20260505115026 55 193 1.0 3.0 0.00 0.00 0.00 42 1012.0
20260505114526 55 194 1.0 9.0 0.00 0.00 0.00 42 1012.0
20260505114046 54 0.0 0.0 0.00 0.00 0.00 44 1011.9
20260505113546 54 170 1.0 3.0 0.00 0.00 0.00 44 1012.0
20260505113027 54 257 1.0 4.0 0.00 0.00 0.00 45 1012.5
20260505112526 53 237 1.0 3.0 0.00 0.00 0.00 45 1012.1
20260505112046 53 198 1.0 3.0 0.00 0.00 0.00 46 1011.8
20260505111526 52 164 1.0 3.0 0.00 0.00 0.00 47 1011.7
20260505111026 51 143 2.0 8.0 0.00 0.00 0.00 48 1011.6
20260505110526 49 116 1.0 3.0 0.00 0.00 0.00 48 1011.6
20260505102026 45 0.0 0.0 0.00 0.00 0.00 47 1011.3
20260505101546 45 0.0 0.0 0.00 0.00 0.00 47 1011.2
20260505101026 45 0.0 0.0 0.00 0.00 0.00 47 1011.2
20260505100526 45 0.0 1.0 0.00 0.00 0.00 47 1011.1
20260505100026 45 0.0 0.0 0.00 0.00 0.00 48 1011.0
20260505095526 45 0.0 1.0 0.00 0.00 0.00 47 1010.9
20260505095026 45 0.0 0.0 0.00 0.00 0.00 47 1011.1
20260505094526 44 0.0 0.0 0.00 0.00 0.00 47 1011.1
20260505094025 44 0.0 0.0 0.00 0.00 0.00 47 1011.2
20260505093606 44 0.0 0.0 0.00 0.00 0.00 47 1011.2
20260505093025 44 0.0 0.0 0.00 0.00 0.00 47 1011.2
20260505092525 44 0.0 0.0 0.00 0.00 0.00 47 1011.2
20260505092025 44 0.0 0.0 0.00 0.00 0.00 46 1011.2
20260505091526 44 0.0 0.0 0.00 0.00 0.00 46 1011.3
20260505091026 44 0.0 0.0 0.00 0.00 0.00 45 1011.3
20260505090526 44 0.0 0.0 0.00 0.00 0.00 45 1011.2
20260505090046 44 0.0 0.0 0.00 0.00 0.00 45 1011.2
20260505085525 44 0.0 0.0 0.00 0.00 0.00 45 1011.2
20260505085046 44 0.0 0.0 0.00 0.00 0.00 44 1011.2
20260505084525 44 0.0 0.0 0.00 0.00 0.00 44 1011.2
20260505084025 44 0.0 0.0 0.00 0.00 0.00 44 1011.2
20260505083546 44 0.0 0.0 0.00 0.00 0.00 44 1011.3
20260505083026 44 0.0 0.0 0.00 0.00 0.00 44 1011.5
20260505082525 45 0.0 0.0 0.00 0.00 0.00 44 1011.4
20260505082025 45 0.0 0.0 0.00 0.00 0.00 44 1011.4
20260505081526 45 0.0 0.0 0.00 0.00 0.00 43 1011.4
20260505081106 45 0.0 1.0 0.00 0.00 0.00 43 1011.5
20260505080525 45 0.0 0.0 0.00 0.00 0.00 43 1011.3
20260505080025 45 0.0 1.0 0.00 0.00 0.00 42 1011.4
20260505075525 45 0.0 1.0 0.00 0.00 0.00 42 1011.4
20260505075026 45 0.0 2.0 0.00 0.00 0.00 43 1011.4
20260505074525 45 0.0 0.0 0.00 0.00 0.00 44 1011.4
20260505074026 45 0.0 1.0 0.00 0.00 0.00 44 1011.4
20260505073525 45 0.0 0.0 0.00 0.00 0.00 45 1011.5
20260505073025 45 0.0 1.0 0.00 0.00 0.00 48 1011.5
20260505072525 46 0.0 0.0 0.00 0.00 0.00 49 1011.6
20260505072025 46 0.0 0.0 0.00 0.00 0.00 51 1011.6
20260505071525 46 0.0 1.0 0.00 0.00 0.00 53 1011.5
20260505071025 46 0.0 0.0 0.00 0.00 0.00 56 1011.6
20260505070526 46 0.0 1.0 0.00 0.00 0.00 57 1011.6
20260505070027 46 0.0 0.0 0.00 0.00 0.00 58 1011.5
20260505065527 47 0.0 0.0 0.00 0.00 0.00 59 1011.6
20260505065025 47 0.0 0.0 0.00 0.00 0.00 60 1011.6
20260505064545 47 0.0 0.0 0.00 0.00 0.00 61 1011.7
20260505064027 48 0.0 0.0 0.00 0.00 0.00 62 1011.8
20260505063545 48 0.0 0.0 0.00 0.00 0.00 63 1011.7
20260505063028 49 0.0 0.0 0.00 0.00 0.00 63 1011.8
20260505062527 49 0.0 2.0 0.00 0.00 0.00 63 1011.9
20260505062027 49 0.0 1.0 0.00 0.00 0.00 62 1011.8
20260505061527 50 0.0 2.0 0.00 0.00 0.00 62 1011.9
20260505061047 50 254 1.0 2.0 0.00 0.00 0.00 62 1011.9
20260505060527 50 254 1.0 2.0 0.00 0.00 0.00 61 1011.9
20260505060027 50 254 1.0 2.0 0.00 0.00 0.00 61 1011.9
20260505055527 51 0.0 2.0 0.00 0.00 0.00 60 1011.9
20260505055027 51 0.0 2.0 0.00 0.00 0.00 60 1012.1
20260505054527 51 254 1.0 2.0 0.00 0.00 0.00 60 1012.1
20260505054027 51 254 1.0 2.0 0.00 0.00 0.00 60 1012.2
20260505053527 51 0.0 1.0 0.00 0.00 0.00 60 1012.1
20260505053025 51 0.0 1.0 0.00 0.00 0.00 60 1012.2
20260505052547 51 0.0 2.0 0.00 0.00 0.00 60 1012.2
20260505052027 51 0.0 2.0 0.00 0.00 0.00 60 1012.2
20260505051527 51 0.0 2.0 0.00 0.00 0.00 60 1012.3
20260505051027 52 0.0 1.0 0.00 0.00 0.00 59 1012.3
20260505050527 52 238 1.0 2.0 0.00 0.00 0.00 59 1012.2
20260505041548 53 171 1.0 3.0 0.00 0.00 0.00 57 1012.5
20260505041027 53 0.0 1.0 0.00 0.00 0.00 57 1012.6
20260505040528 53 0.0 1.0 0.00 0.00 0.00 57 1012.5
20260505040027 53 142 1.0 3.0 0.00 0.00 0.00 57 1012.5
20260505035548 53 0.0 2.0 0.00 0.00 0.00 57 1012.4
20260505035047 53 0.0 3.0 0.00 0.00 0.00 57 1012.4
20260505034527 53 18 1.0 4.0 0.00 0.00 0.00 56 1012.3
20260505034027 53 313 1.0 5.0 0.00 0.00 0.00 56 1012.2
20260505033527 53 0.0 2.0 0.00 0.00 0.00 56 1012.3
20260505033033 53 0.0 1.0 0.00 0.00 0.00 55 1012.3
20260505032608 53 0.0 3.0 0.00 0.00 0.00 55 1012.3
20260505032027 54 0.0 2.0 0.00 0.00 0.00 55 1012.3
20260505031528 54 0.0 1.0 0.00 0.00 0.00 55 1012.3
20260505031025 54 174 1.0 2.0 0.00 0.00 0.00 55 1012.1
20260505030527 54 204 1.0 4.0 0.00 0.00 0.00 55 1012.1
20260505030027 54 0.0 1.0 0.00 0.00 0.00 54 1012.1
20260505025527 54 0.0 2.0 0.00 0.00 0.00 53 1012.2
20260505025027 54 0.0 2.0 0.00 0.00 0.00 53 1012.1
20260505024527 54 254 1.0 3.0 0.00 0.00 0.00 53 1012.2
20260505024027 55 165 1.0 4.0 0.00 0.00 0.00 52 1012.2
20260505023547 55 0.0 1.0 0.00 0.00 0.00 52 1012.2
20260505023047 55 188 1.0 2.0 0.00 0.00 0.00 52 1012.1
20260505022527 55 188 1.0 3.0 0.00 0.00 0.00 52 1012.2
20260505022047 55 179 1.0 2.0 0.00 0.00 0.00 51 1012.3
20260505021527 56 0.0 1.0 0.00 0.00 0.00 51 1012.2
20260505021027 56 0.0 2.0 0.00 0.00 0.00 51 1012.3
20260505020527 56 169 1.0 4.0 0.00 0.00 0.00 50 1012.1
20260505020027 56 169 1.0 4.0 0.00 0.00 0.00 50 1012.2
20260505015527 57 168 1.0 4.0 0.00 0.00 0.00 49 1012.1
20260505015027 57 170 2.0 4.0 0.00 0.00 0.00 48 1012.3
20260505014527 57 188 1.0 3.0 0.00 0.00 0.00 48 1012.3
20260505014027 57 187 1.0 2.0 0.00 0.00 0.00 47 1012.3
20260505013527 57 0.0 2.0 0.00 0.00 0.00 47 1012.3
20260505013027 57 0.0 2.0 0.00 0.00 0.00 46 1012.0
20260505012527 58 158 1.0 4.0 0.00 0.00 0.00 46 1012.0
20260505012027 58 150 2.0 4.0 0.00 0.00 0.00 46 1011.8
20260505011527 58 188 1.0 3.0 0.00 0.00 0.00 46 1011.8
20260505011027 58 201 1.0 3.0 0.00 0.00 0.00 46 1011.6
20260505010527 59 166 1.0 5.0 0.00 0.00 0.00 45 1011.6
20260505010037 59 182 1.0 4.0 0.00 0.00 0.00 45 1011.4
20260505005547 59 174 1.0 5.0 0.00 0.00 0.00 45 1011.5
20260505005027 59 215 1.0 4.0 0.00 0.00 0.00 44 1011.2
20260505004527 59 214 1.0 3.0 0.00 0.00 0.00 44 1011.1
20260505004047 59 209 1.0 4.0 0.00 0.00 0.00 44 1011.0
20260505003527 60 173 1.0 4.0 0.00 0.00 0.00 43 1011.0
20260505003027 60 210 1.0 4.0 0.00 0.00 0.00 42 1010.9
20260505002547 60 217 2.0 5.0 0.00 0.00 0.00 41 1010.7
20260505002027 61 171 2.0 5.0 0.00 0.00 0.00 41 1010.6
20260505001527 61 208 1.0 5.0 0.00 0.00 0.00 41 1010.5
20260505001027 61 202 2.0 4.0 0.00 0.00 0.00 40 1010.4
20260505000527 62 265 1.0 3.0 0.00 0.00 0.00 40 1010.4
20260505000047 62 229 2.0 4.0 0.00 0.00 0.00 39 1010.2
20260504235527 62 212 2.0 6.0 0.00 0.00 0.00 38 1010.2
20260504235107 62 192 2.0 7.0 0.00 0.00 0.00 38 1010.2
20260504234547 62 188 2.0 7.0 0.00 0.00 0.00 39 1010.1
20260504234027 63 195 2.0 5.0 0.00 0.00 0.00 38 1010.1
20260504233527 63 177 1.0 4.0 0.00 0.00 0.00 38 1009.9
20260504233027 63 234 2.0 6.0 0.00 0.00 0.00 38 1009.7
20260504232527 63 247 2.0 9.0 0.00 0.00 0.00 37 1009.4
20260504232026 63 303 2.0 4.0 0.00 0.00 0.00 37 1009.4
20260504231527 64 176 2.0 4.0 0.00 0.00 0.00 36 1009.3
20260504231026 64 181 2.0 5.0 0.00 0.00 0.00 36 1009.3